Weather reports worldwide

Advertisment
Cap Cepet, France (7661): temperature & dewpoint: 11.08.2018 22:00:00 - 17.08.2018 22:00:00 (CEST)Cap Cepet, France (7661): wind speed & gusts: 11.08.2018 22:00:00 - 17.08.2018 22:00:00 (CEST)Cap Cepet, France (7661): wind direction: 11.08.2018 22:00:00 - 17.08.2018 22:00:00 (CEST)Cap Cepet, France (7661): reduced air pressure: 11.08.2018 22:00:00 - 17.08.2018 22:00:00 (CEST)Cap Cepet, France (7661): visibility: 11.08.2018 22:00:00 - 17.08.2018 22:00:00 (CEST)Cap Cepet, France (7661): precipitation: 11.08.2018 22:00:00 - 17.08.2018 22:00:00 (CEST)
Date & Time tt [°C] td [°C] ff [km/h] ff [kn] fx [km/h] fx [kn] dd ppp [hPa] vv [km] rr [mm]
17.08.2018 22:00:00 23,8 19,3 16 9 23 13 W 1014,1 - 0,0
17.08.2018 21:00:00 24,3 20,0 10 5 16 9 W 1013,7 - 0,0
17.08.2018 20:00:00 25,4 20,6 10 6 26 14 SW 1013,2 - 0,0
17.08.2018 19:00:00 26,7 18,8 18 10 34 19 W 1013,1 - 0,0
17.08.2018 18:00:00 27,5 18,5 19 10 38 21 W 1013,2 - 0,0
17.08.2018 17:00:00 27,2 18,2 25 14 39 21 W 1013,8 30 0,0
17.08.2018 16:00:00 27,6 18,3 20 11 32 17 W 1014,2 - 0,0
17.08.2018 15:00:00 28,2 18,3 16 9 29 16 W 1014,2 - 0,0
17.08.2018 14:00:00 27,7 18,1 19 11 30 16 WNW 1014,5 30 0,0
17.08.2018 13:00:00 27,2 17,1 16 9 27 15 WNW 1015,0 - -
17.08.2018 12:00:00 - - 17 9 27 15 W - - -
17.08.2018 11:00:00 - - 16 9 25 13 W - 30 -
17.08.2018 10:00:00 - - 2 1 7 4 W - - -
17.08.2018 09:00:00 - - 6 3 11 6 W - - -
17.08.2018 08:00:00 - - 5 3 12 7 NW - - -
17.08.2018 07:00:00 - - 7 4 16 9 WNW - - -
17.08.2018 06:00:00 - - 11 6 15 8 W - - -
17.08.2018 05:00:00 - - 13 7 14 8 W - - -
17.08.2018 04:00:00 - - 6 3 18 10 WNW - - -
17.08.2018 03:00:00 - - 12 6 17 9 W - - -
17.08.2018 02:00:00 - - 9 5 13 7 WNW - - -
17.08.2018 01:00:00 - - 9 5 23 13 WNW - - -
17.08.2018 00:00:00 - - 18 10 35 19 WNW - - -
16.08.2018 23:00:00 - - 20 11 29 16 W - - -
16.08.2018 22:00:00 - - 17 9 26 14 W - - -
16.08.2018 21:00:00 - - 16 9 26 14 W - - -
16.08.2018 20:00:00 - - 17 9 26 14 W - 35 -
16.08.2018 19:00:00 - - 16 9 24 13 W - - -
16.08.2018 18:00:00 - - 8 4 23 13 W - - -
16.08.2018 17:00:00 - - 14 7 22 12 SSW - - -
16.08.2018 16:00:00 - - 14 8 22 12 SSW - - -
16.08.2018 15:00:00 - - 13 7 20 11 S - - -
16.08.2018 14:00:00 - - 10 6 19 11 S - 35 -
16.08.2018 13:00:00 - - 9 5 22 12 SSE - - -
16.08.2018 12:00:00 - - 9 5 21 11 ESE - - -
16.08.2018 11:00:00 - - 11 6 19 10 ENE - 30 -
16.08.2018 10:00:00 - - 11 6 19 10 ENE - - -
16.08.2018 09:00:00 - - 16 8 23 13 ENE - - -
16.08.2018 08:00:00 - - 9 5 21 12 NE - 30 -
16.08.2018 07:00:00 - - 8 4 11 6 NE - - -
16.08.2018 06:00:00 - - 6 3 10 6 N - - -
16.08.2018 05:00:00 - - 5 3 9 5 N - - -
16.08.2018 04:00:00 - - 4 2 10 5 NW - - -
16.08.2018 03:00:00 - - 7 4 10 5 NW - - -
16.08.2018 02:00:00 - - 5 3 10 5 NNW - - -
16.08.2018 01:00:00 - - 5 3 10 5 NNE - - -
16.08.2018 00:00:00 - - 8 4 14 7 WNW - - -
15.08.2018 23:00:00 - - 11 6 16 8 W - - -
15.08.2018 22:00:00 - - 12 6 19 10 WNW - - -
15.08.2018 21:00:00 - - 11 6 29 16 WNW - - -
15.08.2018 20:00:00 - - 19 11 34 18 W - - -
15.08.2018 19:00:00 - - 19 10 33 18 W - - -
15.08.2018 18:00:00 - - 20 11 32 17 W - - -
15.08.2018 17:00:00 - - 18 10 29 15 W - - -
15.08.2018 16:00:00 - - 17 9 29 15 WNW - - -
15.08.2018 15:00:00 - - 11 6 24 13 W - - -
15.08.2018 14:00:00 - - 13 7 21 11 SSW - 40 -
15.08.2018 13:00:00 - - 8 4 17 9 SW - - -
15.08.2018 12:00:00 - - 9 5 16 9 SSW - - -
15.08.2018 11:00:00 - - 7 4 14 7 W - - -
15.08.2018 10:00:00 - - 7 4 13 7 W - - -
15.08.2018 09:00:00 - - 9 5 16 8 WNW - - -
15.08.2018 08:00:00 - - 6 4 8 5 WNW - 35 -
15.08.2018 07:00:00 - - 5 3 9 5 NNE - - -
15.08.2018 06:00:00 - - 7 4 10 6 NNE - - -
15.08.2018 05:00:00 - - 5 3 13 7 N - 10 -
15.08.2018 04:00:00 - - 11 6 15 8 ENE - - -
15.08.2018 03:00:00 - - 5 3 9 5 NNE - - -
15.08.2018 02:00:00 - - 8 4 13 7 N - - -
15.08.2018 01:00:00 - - 5 3 24 13 N - - -
15.08.2018 00:00:00 - - 12 6 28 15 NE - - -
14.08.2018 23:00:00 - - 23 13 34 19 ENE - - -
14.08.2018 22:00:00 - - 15 8 31 17 NNE - - -
14.08.2018 21:00:00 - - 15 8 29 16 W - - -
14.08.2018 20:00:00 - - 23 12 38 21 W - 30 -
14.08.2018 19:00:00 - - 26 14 49 27 W - - -
14.08.2018 18:00:00 - - 34 18 54 29 W - - -
14.08.2018 17:00:00 - - 31 17 58 31 W - - -
14.08.2018 16:00:00 - - 39 21 65 35 W - - -
14.08.2018 15:00:00 - - 42 23 64 34 W - - -
14.08.2018 14:00:00 - - 28 15 57 31 WNW - - -
14.08.2018 13:00:00 - - 34 18 54 29 W - - -
14.08.2018 12:00:00 - - 34 19 59 32 W - - -
14.08.2018 11:00:00 - - 36 20 59 32 W - 25 -
14.08.2018 10:00:00 - - 34 19 54 29 W - - -
14.08.2018 09:00:00 - - 30 16 45 24 W - - -
14.08.2018 08:00:00 - - 30 16 53 28 W - 20 -
14.08.2018 07:00:00 - - 26 14 41 22 WNW - - -
14.08.2018 06:00:00 - - 21 12 37 20 WNW - - -
14.08.2018 05:00:00 - - 21 11 40 21 W - 20 -
14.08.2018 04:00:00 - - 24 13 37 20 W - - -
14.08.2018 03:00:00 - - 21 11 37 20 WNW - - -
14.08.2018 02:00:00 - - 24 13 37 20 WNW - - -
14.08.2018 01:00:00 - - 20 11 29 16 W - - -
14.08.2018 00:00:00 - - 19 10 35 19 W - - -
13.08.2018 23:00:00 - - 26 14 36 19 W - - -
13.08.2018 22:00:00 - - 20 11 28 15 W - - -
13.08.2018 21:00:00 - - 16 9 22 12 W - - -
13.08.2018 20:00:00 - - 3 1 7 4 SSW - 20 -
13.08.2018 19:00:00 - - 3 2 12 7 SE - - -
13.08.2018 18:00:00 - - 7 4 14 8 ENE - - -
13.08.2018 17:00:00 - - 7 4 14 8 ENE - 20 -
13.08.2018 16:00:00 - - 7 4 19 10 SE - - -
13.08.2018 15:00:00 - - 9 5 22 12 SE - - -
13.08.2018 14:00:00 - - 14 7 23 12 SE - - -
13.08.2018 13:00:00 - - 14 8 36 19 ESE - - -
13.08.2018 12:00:00 - - 21 11 36 20 NE - - -
13.08.2018 11:00:00 - - 24 13 44 24 NE - 10 -
13.08.2018 10:00:00 - - 32 17 46 25 NE - - -
13.08.2018 09:00:00 - - 29 16 43 23 NE - - -
13.08.2018 08:00:00 18,1 18,1 16 8 80 43 NNW 1015,1 - -
13.08.2018 07:00:00 21,6 21,4 8 5 13 7 ENE 1013,6 - 2,0
13.08.2018 06:00:00 22,9 20,4 5 3 20 11 SE 1013,4 - 0,0
13.08.2018 05:00:00 21,5 20,7 18 10 26 14 ENE 1012,3 - 0,0
13.08.2018 04:00:00 22,3 20,2 15 8 20 11 ENE 1013,7 - 0,0
13.08.2018 03:00:00 23,4 20,9 2 1 7 4 ENE 1014,0 - 0,0
13.08.2018 02:00:00 23,4 21,7 2 1 10 5 NE 1014,2 - 0,0
13.08.2018 01:00:00 23,3 22,1 3 2 14 7 SW 1014,6 - 0,0
13.08.2018 00:00:00 23,3 22,6 8 5 18 10 WNW 1014,7 - 0,0
12.08.2018 23:00:00 23,8 23,5 14 7 21 12 W 1015,5 - 0,0
12.08.2018 22:00:00 24,0 23,5 16 9 26 14 W 1016,0 - 0,0
12.08.2018 21:00:00 24,0 23,0 14 7 19 10 W 1015,1 - 0,0
12.08.2018 20:00:00 25,4 22,3 7 4 18 10 SW 1014,5 25 0,0
12.08.2018 19:00:00 28,3 18,1 8 4 28 15 WSW 1014,7 - 0,0
12.08.2018 18:00:00 28,9 11,9 11 6 27 15 SW 1015,2 - 0,0
12.08.2018 17:00:00 28,0 20,3 12 7 26 14 SSW 1015,7 - 0,0
12.08.2018 16:00:00 28,5 18,9 9 5 24 13 SSW 1016,2 - 0,0
12.08.2018 15:00:00 27,5 18,5 15 8 24 13 SSW 1017,0 - 0,0
12.08.2018 14:00:00 27,6 18,3 10 6 22 12 S 1017,2 25 0,0
12.08.2018 13:00:00 27,6 17,7 9 5 20 11 S 1017,6 - 0,0
12.08.2018 12:00:00 27,5 17,9 12 6 19 10 SSE 1017,7 - 0,0
12.08.2018 11:00:00 27,0 17,2 10 5 20 11 SE 1017,6 30 0,0
12.08.2018 10:00:00 25,7 12,5 14 8 22 12 ENE 1017,3 - 0,0
12.08.2018 09:00:00 22,9 10,3 18 10 23 12 NE 1017,3 - 0,0
12.08.2018 08:00:00 22,0 10,2 13 7 20 11 ENE 1017,3 - 0,0
12.08.2018 07:00:00 21,9 8,7 10 5 14 8 ENE 1016,8 - 0,0
12.08.2018 06:00:00 22,4 8,9 6 4 10 5 NE 1016,5 - 0,0
12.08.2018 05:00:00 21,6 11,9 5 3 27 15 NNE 1016,4 10 0,0
12.08.2018 04:00:00 22,5 11,9 9 5 34 19 WNW 1016,7 - 0,0
12.08.2018 03:00:00 22,2 14,1 21 11 40 21 WNW 1016,6 - 0,0
12.08.2018 02:00:00 22,4 19,0 22 12 41 22 WNW 1016,9 15 0,0
12.08.2018 01:00:00 23,0 20,0 27 14 49 26 W 1017,0 - 0,0
12.08.2018 00:00:00 23,2 20,2 31 17 50 27 W 1017,2 - 0,0
11.08.2018 23:00:00 23,4 20,1 31 17 50 27 W 1017,2 - 0,0
11.08.2018 22:00:00 24,1 19,2 26 14 49 27 W 1016,9 - 0,0

tt = temperature
td = dewpoint
ff = wind speed
fx = gusts
dd = wind direction
ppp = reduced air pressure
vv = visibility
rr = precipitation

Next stations